Weather History for KDEC - September, 2012

Change the Weather History Date:

Sunday, September 16, 2012

  Actual Average Record
Temperature  
Mean Temperature 63 °F 66 °F  
Max Temperature 78 °F 79 °F 87 °F (1997)
Min Temperature 47 °F 54 °F 41 °F (2000)
Degree Days  
Heating Degree Days 2 2  
Month to date heating degree days 13 12  
Since 1 July heating degree days 13 18  
Cooling Degree Days 0 3  
Month to date cooling degree days 103 80  
Year to date cooling degree days 1417 998  
Growing Degree Days 12 (Base 50)    
Moisture  
Dew Point 53 °F    
Average Humidity 72    
Maximum Humidity 100    
Minimum Humidity 43    
Precipitation  
Precipitation 0.00 in 0.09 in 0.00 in (2015)
Month to date precipitation 4.85 1.89  
Year to date precipitation 17.84 28.20  
Sea Level Pressure  
Sea Level Pressure 30.08 in    
Wind  
Wind Speed 4 mph (South)    
Max Wind Speed 13 mph    
Max Gust Speed 16 mph    
Visibility 10 miles    
Events      
T = Trace of Precipitation, MM = Missing Value Source: NWS Daily Summary

Daily Weather History Graph

Daily Weather History Graph

Search for Another Location

Airport or City:

Trip Planner

Search our weather history database for the weather conditions in past years. The results will help you decide how hot, cold, wet, or windy it might be!

Date:

Astronomy

Sep. 16, 2012 Rise Set
Actual Time 6:37 AM CDT 7:01 PM CDT
Civil Twilight 6:10 AM CDT 7:28 PM CDT
Nautical Twilight 5:38 AM CDT 8:00 PM CDT
Astronomical Twilight 5:06 AM CDT 8:32 PM CDT
Moon 7:16 AM CDT (9/16) 7:06 PM CDT (9/16)
Length of Visible Light 13h 17m
Length of Day
12h 23m
New Moon, 0% of the Moon is Illuminated
Sep 16
New Moon
Sep 22
First Quarter
Sep 29
Full
Oct 8
Last Quarter
Oct 15
New

Hourly Weather History & Observations

Time (CDT) Temp. Dew Point Humidity Pressure Visibility Wind Dir Wind Speed Gust Speed Precip Events Conditions
12:54 AM 51.1 °F 48.9 °F 92% 30.16 in 10.0 mi ENE 3.5 mph - N/A   Scattered Clouds
1:54 AM 51.1 °F 48.0 °F 89% 30.15 in 10.0 mi Calm Calm - N/A   Clear
2:54 AM 50.0 °F 48.0 °F 93% 30.14 in 10.0 mi Calm Calm - N/A   Clear
3:54 AM 50.0 °F 46.9 °F 89% 30.13 in 10.0 mi Calm Calm - N/A   Clear
4:54 AM 48.9 °F 46.9 °F 93% 30.13 in 10.0 mi Calm Calm - N/A   Clear
5:54 AM 46.9 °F 46.0 °F 97% 30.14 in 10.0 mi Calm Calm - N/A   Clear
6:54 AM 48.2 °F 46.4 °F 93% 30.15 in 10.0 mi Calm Calm - N/A   Clear
7:54 AM 54.0 °F 50.0 °F 86% 30.15 in 10.0 mi Calm Calm - N/A   Clear
8:54 AM 63.0 °F 54.0 °F 72% 30.14 in 10.0 mi East 5.8 mph - N/A   Clear
9:54 AM 69.1 °F 51.1 °F 53% 30.14 in 10.0 mi SE 9.2 mph - N/A   Clear
10:54 AM 72.0 °F 52.0 °F 49% 30.12 in 10.0 mi SE 8.1 mph - N/A   Clear
11:54 AM 73.9 °F 52.0 °F 46% 30.10 in 10.0 mi SSE 8.1 mph - N/A   Clear
12:54 PM 75.0 °F 52.0 °F 44% 30.09 in 10.0 mi South 5.8 mph - N/A   Clear
1:54 PM 77.0 °F 53.1 °F 43% 30.06 in 10.0 mi SSW 12.7 mph - N/A   Clear
2:54 PM 77.0 °F 54.0 °F 45% 30.04 in 10.0 mi South 8.1 mph - N/A   Clear
3:54 PM 77.0 °F 55.9 °F 48% 30.01 in 10.0 mi South 9.2 mph - N/A   Partly Cloudy
4:54 PM 75.9 °F 57.9 °F 54% 30.01 in 10.0 mi SSW 9.2 mph - N/A   Partly Cloudy
5:54 PM 73.9 °F 57.0 °F 55% 30.01 in 10.0 mi South 8.1 mph - N/A   Mostly Cloudy
6:54 PM 70.0 °F 55.9 °F 61% 30.01 in 10.0 mi South 5.8 mph - N/A   Clear
7:54 PM 68.0 °F 57.0 °F 68% 30.01 in 10.0 mi Calm Calm - N/A   Clear
8:54 PM 64.9 °F 57.9 °F 78% 30.02 in 10.0 mi SSW 3.5 mph - N/A   Partly Cloudy
9:54 PM 63.0 °F 57.9 °F 84% 30.01 in 10.0 mi SSW 3.5 mph - N/A   Clear
10:54 PM 61.0 °F 57.9 °F 90% 30.01 in 10.0 mi Calm Calm - N/A   Partly Cloudy
11:54 PM 60.1 °F 57.9 °F 93% 30.00 in 10.0 mi Calm Calm - N/A   Clear